Other Public Products
Issued by NWS Charleston, SC

Current Version | Previous Version | Graphics & Text | Print | Product List | Glossary On
Versions: 1 2 3 4 5 6 7 8 9 10 11 12 13 14 15 16 17 18 19 20 21 22 23 24 25 26 27 28 29 30 31 32 33 34 35 36 37 38 39 40 41 42 43 44 45 46 47 48 49 50
000
FPUS82 KCHS 191427
OPUCHS

TEST...KCHS/KSAV Gateway Observations...TEST
National Weather Service Charleston SC
900 AM EST MON FEB 19 2018

NOTE: "fair" indicates few or no clouds below 12,000 feet with no
significant weather and/or obstructions to visibility.

SCZ050-WAZ558-NCZ071-TXZ119-213-PAZ071-DCZ001-FLZ074-172-MI076-
NYZ176-178-MAZ016-IL014-TNZ027-NJZ106-GAZ044-MD014-191500-

...Gateway Observations for Charleston International...

CITY           SKY/WX    TMP DP  RH WIND       PRES   REMARKS
Chas Airport   CLOUDY    60  57  89 NE7       30.40R FOG
Seattle        CLOUDY    30  12  47 N14       30.11R WCI  19
Charlotte      CLOUDY    51  49  92 NE6       30.43R
Dallas DFW     CLOUDY    71  64  78 S20G29    29.81S
Dallas Love    CLOUDY    70  64  81 S18       29.84S
Philladelphia  PTSUNNY   40  34  79 S3        30.51F
Wash National  CLOUDY    42  39  89 S8        30.50R
Baltimore      CLOUDY    38  36  92 SE3       30.47F
Miami          CLOUDY    77  68  73 E13       30.26R
Detroit        LGT RAIN  34  34 100 S3        30.02R VSB 1
Newark         PTSUNNY   40  33  76 S5        30.52S WCI  37
Laguardia      FAIR      43  33  68 S9        30.52S
J F K          PTSUNNY   42  36  79 S9        30.55R
Boston Logan   FAIR      37  28  70 S13       30.54F WCI  29
Ft. Lauderdale PTSUNNY   76  69  79 E17       30.26R
Chicago O`Hare LGT RAIN  39  36  89 NE9       29.78F FOG     WCI  33
Chicago Midway LGT RAIN  41  40  96 S7        29.87S FOG
Houston Bush   CLOUDY    71  67  87 S12G21    30.00S
Houston Hobby  PTSUNNY   68  68 100 S9        30.01R
Nashville      PTSUNNY   65  58  78 S13       30.19R
Atlanta        DRZL/FOG  60  60 100 E9        30.34R VSB 1/2

$$

GAZ044-118-TXZ119-213-NCZ071-DCZ001-MDZ014-506-PAZ021-071-NJZ106-
NYZ176-178-MAZ106-OHZ011-021-055-MIZ076-KYZ091-ILZ014-INZ047-
MNZ060-ONZ431-191500-

...Gateway Observations for Savannah International...

CITY           SKY/WX    TMP DP  RH WIND       PRES   REMARKS
Savannah Arpt  FOG       60  60 100 NE6       30.40R VSB 1/4
Atlanta        DRZL/FOG  60  60 100 E9        30.34R VSB 1/2
Charlotte      CLOUDY    51  49  92 NE6       30.43R
Dallas DFW     CLOUDY    71  64  78 S20G29    29.81S
Houston Bush   CLOUDY    71  67  87 S12G21    30.00S
Wash National  CLOUDY    42  39  89 S8        30.50R
Wash Dulles    PTSUNNY   39  37  92 S9        30.45F WCI  33
Baltimore      CLOUDY    38  36  92 SE3       30.47F
Philadelphia   PTSUNNY   40  34  79 S3        30.51F
Newark         PTSUNNY   40  33  76 S5        30.52S WCI  37
Laguardia      FAIR      43  33  68 S9        30.52S
J F K          PTSUNNY   42  36  79 S9        30.55R
Boston         FAIR      37  28  70 S13       30.54F WCI  29
Pittsburg      LGT RAIN  45  40  82 SE8       30.15F
Akron          RAIN      44  39  82 CALM      30.13R
Cleveland      LGT RAIN  45  43  93 S13       30.09R
Cincinnati     LGT RAIN  59  57  93 S15G23    30.07R
Columbus       CLOUDY    50  50 100 S18       30.08S
Detroit        LGT RAIN  34  34 100 S3        30.02R VSB 1
Chicago O`Hare LGT RAIN  39  36  89 NE9       29.78F FOG     WCI  33
Minneapolis    CLOUDY    20  15  81 N20G28    29.91R WCI   4
Indianapolis   CLOUDY    52  52 100 S8        29.97F
Toronto Canada PTSUNNY   36  28  75 E5        30.06F WCI  32

$$




USA.gov is the U.S. government's official web portal to all federal, state and local government web resources and services.